WA3YML Weather Reports


time (UTC)temp
F
wind
direction
speed
knots
gust
knots
rain 1hr
in
rain 24hr
in
rain mn
in
humidity
%
barometer
mb
20210723160004 72 196 0.9 4.3 0.00 0.00 0.00 69 1022.0
20210723154504 70 125 0.9 6.1 0.00 0.00 0.00 72 1022.2
20210723153005 69 290 0.9 4.3 0.00 0.00 0.00 73 1022.3
20210723151503 68 331 1.7 2.6 0.00 0.00 0.00 73 1022.4
20210723150004 67 130 1.7 2.6 0.00 0.00 0.00 76 1022.3
20210723144503 67 83 0.9 4.3 0.00 0.00 0.00 77 1022.3
20210723143003 66 314 0.9 4.3 0.00 0.00 0.00 82 1022.5
20210723141504 65 78 0.9 2.6 0.00 0.00 0.00 79 1022.5
20210723140003 65 38 0.9 4.3 0.00 0.00 0.00 85 1022.4
20210723134503 64 24 0.9 4.3 0.00 0.00 0.00 85 1022.5
20210723133005 63 272 0.9 2.6 0.00 0.00 0.00 86 1022.5
20210723131503 62 122 0.9 4.3 0.00 0.00 0.00 89 1022.6
20210723130004 61 59 0.9 2.6 0.00 0.00 0.00 90 1022.7
20210723124504 60 297 0.0 2.6 0.00 0.00 0.00 94 1022.6
20210723123004 58 240 0.0 1.7 0.00 0.00 0.00 98 1022.4
20210723121504 56 267 0.0 1.7 0.00 0.00 0.00 98 1022.4
20210723120003 55 349 0.0 1.7 0.00 0.00 0.00 98 1022.3
20210723114504 54 299 0.0 1.7 0.00 0.00 0.00 98 1022.2
20210723113005 53 289 0.0 1.7 0.00 0.00 0.00 98 1022.2
20210723111504 52 341 0.0 0.9 0.00 0.00 0.00 98 1022.3
20210723110004 51 0 0.0 0.0 0.00 0.00 0.00 98 1022.1
20210723104504 50 0 0.0 0.9 0.00 0.00 0.00 97 1022.1
20210723103005 50 339 0.0 0.9 0.00 0.00 0.00 97 1022.2
20210723101504 50 0 0.0 0.0 0.00 0.00 0.00 97 1022.0
20210723100003 50 333 0.0 0.9 0.00 0.00 0.00 97 1021.9
20210723094503 49 0 0.0 0.9 0.00 0.00 0.00 97 1021.8
20210723093004 49 297 0.0 0.9 0.00 0.00 0.00 96 1021.7
20210723091503 49 0 0.0 0.0 0.00 0.00 0.00 96 1021.6
20210723090005 49 0 0.0 0.9 0.00 0.00 0.00 96 1021.5
20210723084505 49 10 0.0 0.9 0.00 0.00 0.00 96 1021.3
20210723083005 49 274 0.0 0.0 0.00 0.00 0.00 96 1021.2
20210723081504 49 274 0.0 0.9 0.00 0.00 0.00 95 1021.1
20210723080004 49 0 0.0 0.9 0.00 0.00 0.00 95 1021.1
20210723074504 50 0 0.0 0.0 0.00 0.00 0.00 95 1021.0
20210723073004 50 0 0.0 0.9 0.00 0.00 0.00 95 1021.0
20210723071504 50 342 0.0 0.0 0.00 0.00 0.00 95 1021.1
20210723070004 51 342 0.0 0.0 0.00 0.00 0.00 95 1021.0
20210723064504 51 342 0.0 0.0 0.00 0.00 0.00 95 1021.2
20210723063004 51 342 0.0 0.9 0.00 0.00 0.00 94 1021.5
20210723061504 52 282 0.0 0.9 0.00 0.00 0.00 93 1021.4
20210723060003 52 0 0.0 0.9 0.00 0.00 0.00 93 1021.6
20210723054504 53 0 0.0 0.0 0.00 0.00 0.00 94 1021.5
20210723053005 53 0 0.0 0.9 0.00 0.00 0.00 94 1021.5
20210723051505 53 0 0.0 0.9 0.00 0.00 0.00 93 1021.5
20210723050006 54 0 0.0 0.0 0.00 0.00 0.00 93 1021.7
20210723044504 54 312 0.0 0.0 0.00 0.00 0.00 93 1021.8
20210723043005 55 312 0.0 0.9 0.00 0.00 0.00 93 1021.8
20210723041504 55 317 0.0 0.9 0.00 0.00 0.00 93 1021.8
20210723040004 55 319 0.0 1.7 0.00 0.00 0.00 93 1021.9
20210723034504 56 311 0.0 0.0 0.00 0.00 0.00 94 1021.9
20210723033006 56 311 0.0 0.0 0.00 0.00 0.00 93 1021.8
20210723031504 57 311 0.0 0.9 0.00 0.00 0.00 93 1021.6
20210723030004 58 319 0.0 0.9 0.00 0.00 0.00 92 1021.6
20210723024505 58 321 0.0 0.9 0.00 0.00 0.00 92 1021.6
20210723023005 58 331 0.0 0.9 0.00 0.00 0.00 92 1021.7
20210723021505 59 352 0.0 0.9 0.00 0.00 0.00 92 1021.7
20210723020003 60 341 0.0 0.9 0.00 0.00 0.00 92 1021.6
20210723014503 60 328 0.0 0.9 0.00 0.00 0.00 90 1021.4
20210723013003 60 0 0.0 0.9 0.00 0.00 0.00 91 1021.2
20210723011502 60 18 0.0 0.9 0.00 0.00 0.00 90 1021.1
20210723010004 61 8 0.0 0.9 0.00 0.00 0.00 89 1021.1
20210723004503 62 359 0.0 1.7 0.00 0.00 0.00 88 1020.8
20210723003004 63 347 0.0 1.7 0.00 0.00 0.00 88 1020.7
20210723001502 63 343 0.9 1.7 0.00 0.00 0.00 87 1020.6
20210723000003 64 345 0.0 0.9 0.00 0.00 0.00 85 1020.5
20210722234503 65 0 0.0 0.0 0.00 0.00 0.00 82 1020.4
20210722233003 66 0 0.0 0.0 0.00 0.00 0.00 80 1020.3
20210722231503 66 39 0.0 1.7 0.00 0.00 0.00 78 1020.3
20210722230004 67 17 0.0 0.9 0.00 0.00 0.00 77 1020.3
20210722224503 67 9 0.9 2.6 0.00 0.00 0.00 75 1020.2
20210722223003 68 337 0.9 4.3 0.00 0.00 0.00 76 1020.1
20210722221503 69 36 0.0 4.3 0.00 0.00 0.00 72 1020.0
20210722220002 69 33 0.9 5.2 0.00 0.00 0.00 72 1019.9
20210722214503 69 73 0.0 2.6 0.00 0.00 0.00 71 1019.9
20210722213004 71 110 0.9 2.6 0.00 0.00 0.00 72 1019.8
20210722211503 71 0 0.0 2.6 0.00 0.00 0.00 71 1019.7
20210722210004 71 55 0.9 4.3 0.00 0.00 0.00 70 1019.6
20210722204503 71 184 0.9 4.3 0.00 0.00 0.00 72 1019.6
20210722203003 72 3 1.7 4.3 0.00 0.00 0.00 68 1019.7
20210722201503 73 271 0.9 5.2 0.00 0.00 0.00 70 1019.6
20210722200004 73 312 1.7 5.2 0.00 0.00 0.00 68 1019.5
20210722194503 73 191 1.7 2.6 0.00 0.00 0.00 70 1019.7
20210722193003 72 294 0.9 2.6 0.00 0.00 0.00 70 1019.6
20210722191503 71 264 0.9 4.3 0.00 0.00 0.00 68 1019.7
20210722190003 70 315 0.9 2.6 0.00 0.00 0.00 71 1019.8
20210722184503 71 94 1.7 5.2 0.00 0.00 0.00 66 1020.0
20210722183004 72 257 0.9 5.2 0.00 0.00 0.00 65 1019.8
20210722181503 72 21 0.9 5.2 0.00 0.00 0.00 68 1020.0
20210722180004 72 228 1.7 6.1 0.00 0.00 0.00 64 1020.1
20210722174504 71 358 0.9 4.3 0.00 0.00 0.00 70 1020.2
20210722173003 71 5 0.9 4.3 0.00 0.00 0.00 70 1020.2
20210722171504 71 53 0.9 4.3 0.00 0.00 0.00 66 1020.3
20210722170003 70 277 0.0 4.3 0.00 0.00 0.00 71 1020.3
20210722164503 71 240 0.9 5.2 0.00 0.00 0.00 66 1020.5
20210722163004 71 105 0.9 4.3 0.00 0.00 0.00 70 1020.6
20210722161503 70 286 0.9 4.3 0.00 0.00 0.00 73 1020.5